Regional Weather Roundup
Issued by NWS

Home | Current Version | Previous Version | Text Only | Print | Product List | Glossary On
Versions: 1 2 3 4 5 6 7 8 9 10 11 12 13 14 15 16 17 18 19 20 21 22 23 24 25 26 27 28 29 30 31 32 33 34 35 36 37 38 39 40 41 42 43 44 45 46 47 48 49 50
000
ASUS43 KLSX 240259
RWRMO

WEATHER SUMMARY FOR MISSOURI
NATIONAL WEATHER SERVICE SPRINGFIELD MO
1000 PM CDT SUN APR 23 2017

NOTE: "FAIR" INDICATES FEW OR NO CLOUDS BELOW 12,000 FEET WITH NO
       SIGNIFICANT WEATHER AND/OR OBSTRUCTIONS TO VISIBILITY.
       CURRENT SKY AND/OR WEATHER CONDITIONS ARE NOT AVAILABLE FOR
       CHILLICOTHE AND FARMINGTON.

MOZ001>031-035>038-043-044-053-054-240400-
...NORTHERN AND WESTERN MISSOURI...

CITY           SKY/WX    TMP DP  RH WIND       PRES   REMARKS
KANSAS CTY INT CLOUDY    54  34  46 S8        30.00R
KANSAS C DTWN  PTCLDY    60  35  39 S7        29.99R
LEE`S SUMMIT   CLOUDY    60  35  39 S7        30.01R
ST JOSEPH      CLOUDY    55  40  56 S5        29.98S
CHILLICOTHE      N/A     50  41  71 CALM      30.01S
KIRKSVILLE     CLEAR     50  32  50 S3        30.02R

$$
MOZ066>068-077>081-088>096-101>105-240400-
...SOUTHWEST MISSOURI...

CITY           SKY/WX    TMP DP  RH WIND       PRES   REMARKS
SPRINGFIELD    CLEAR     50  39  66 CALM      30.00F
JOPLIN         CLEAR     48  43  82 SE3       30.00F

$$
MOZ032>034-039>042-045>050-055>058-069>072-240400-
...CENTRAL MISSOURI...

CITY           SKY/WX    TMP DP  RH WIND       PRES   REMARKS
COLUMBIA       CLEAR     60  27  28 E3        30.01S
JEFFERSON CITY CLEAR     54  38  54 CALM      30.01R
ROLLA          CLEAR     50  36  58 CALM      29.99F

$$
MOZ051-052-059>065-240400-
...EAST CENTRAL MISSOURI...

CITY           SKY/WX    TMP DP  RH WIND       PRES   REMARKS
ST LOUIS INTL  CLEAR     60  32  34 N3        30.01R
SPIRIT OF STL  CLEAR     50  41  71 CALM      30.00R
ST CHARLES     CLEAR     53  43  68 N5        29.99S

$$
MOZ072>076-082>087-097>100-106>115-240400-
...SOUTH CENTRAL AND SOUTHEAST MISSOURI...

CITY           SKY/WX    TMP DP  RH WIND       PRES   REMARKS
CAPE GIRARDEAU CLEAR     50  43  77 CALM      29.95S
POPLAR BLUFF   CLEAR     54  42  64 N5        29.96S
WEST PLAINS    CLEAR     53  35  50 CALM      30.01S

$$




USA.gov is the U.S. government's official web portal to all federal, state and local government web resources and services.